Weather History for Sitka, AK

Change the Weather History Date:

Tuesday, July 9, 2013

  Actual Average Record
Temperature  
Mean Temperature 52 °F -  
Max Temperature 52 °F 60 °F 80 °F (1971)
Min Temperature 51 °F 51 °F 45 °F (1956)
Degree Days  
Heating Degree Days 12    
Growing Degree Days 2 (Base 50)    
Moisture  
Dew Point 51 °F    
Average Humidity 95    
Maximum Humidity 100    
Minimum Humidity 88    
Precipitation  
Precipitation 0.80 in - - ()
Sea Level Pressure  
Sea Level Pressure 30.05 in    
Wind  
Wind Speed 6 mph (SSE)    
Max Wind Speed 10 mph    
Max Gust Speed 21 mph    
Visibility 6 miles    
Events Rain    
Averages and records for this station are not official NWS values.
T = Trace of Precipitation, MM = Missing Value Source: NWS Daily Summary

Daily Weather History Graph

Daily Weather History Graph

Search for Another Location

Airport:

Trip Planner

Search our weather history database for the weather conditions in past years. The results will help you decide how hot, cold, wet, or windy it might be!

Date:

Astronomy

Jul. 09, 2013 Rise Set
Actual Time 4:21 AM AKDT 9:51 PM AKDT
Civil Twilight 3:17 AM AKDT 10:54 PM AKDT
Nautical Twilight 1:39 AM AKDT 12:34 AM AKDT
Astronomical Twilight Sun does not rise Sun does not rise
Moon 6:25 AM AKDT (7/9) 9:53 PM AKDT (7/9)
Length of Visible Light 19h 36m
Length of Day
17h 30m
New Moon, 2% of the Moon is Illuminated
Jul 9
New Moon
Jul 15
First Quarter
Jul 22
Full
Jul 29
Last Quarter
Aug 6
New

Hourly Weather History & Observations

Time (AKDT) Temp. Dew Point Humidity Pressure Visibility Wind Dir Wind Speed Gust Speed Precip Events Conditions
12:53 AM 51.1 °F 50.0 °F 96% 30.06 in 9.0 mi East 5.8 mph - 0.07 in Rain Light Rain
1:53 AM 52.0 °F 50.0 °F 93% 30.06 in 9.0 mi East 9.2 mph - 0.01 in Rain Rain
2:10 AM 51.8 °F 50.0 °F 94% 30.06 in 2.5 mi SE 10.4 mph 20.7 mph 0.14 in Rain Heavy Rain
2:18 AM 53.6 °F 51.8 °F 94% 30.06 in 7.0 mi Variable 5.8 mph - 0.14 in Rain Light Rain
2:53 AM 52.0 °F 51.1 °F 97% 30.07 in 9.0 mi SE 8.1 mph - 0.15 in Rain Light Rain
3:05 AM 51.8 °F 50.0 °F 94% 30.06 in 7.0 mi ESE 9.2 mph - 0.01 in Rain Light Rain
3:21 AM 51.8 °F 50.0 °F 94% 30.07 in 10.0 mi East 6.9 mph - 0.01 in   Overcast
3:30 AM 51.8 °F 50.0 °F 94% 30.07 in 10.0 mi ENE 5.8 mph - 0.01 in   Overcast
3:53 AM 52.0 °F 50.0 °F 93% 30.07 in 10.0 mi ESE 10.4 mph - 0.01 in   Overcast
4:53 AM 52.0 °F 50.0 °F 93% 30.07 in 10.0 mi East 6.9 mph - 0.00 in   Overcast
5:53 AM 51.1 °F 50.0 °F 96% 30.07 in 8.0 mi Variable 5.8 mph - 0.01 in Rain Light Rain
6:53 AM 52.0 °F 50.0 °F 93% 30.07 in 10.0 mi ESE 6.9 mph - 0.01 in   Overcast
7:53 AM 53.1 °F 50.0 °F 89% 30.07 in 10.0 mi East 5.8 mph - N/A   Overcast
8:16 AM 53.6 °F 51.8 °F 94% 30.07 in 9.0 mi SE 5.8 mph - 0.00 in Rain Light Rain
8:22 AM 53.6 °F 50.0 °F 88% 30.08 in 2.5 mi SSE 5.8 mph - 0.00 in Rain Light Rain
8:25 AM 53.6 °F 50.0 °F 88% 30.08 in 3.0 mi SSE 6.9 mph - 0.02 in Rain Light Rain
8:41 AM 51.8 °F 51.8 °F 100% 30.08 in 5.0 mi South 5.8 mph - 0.06 in Rain Light Rain
8:53 AM 52.0 °F 51.1 °F 97% 30.08 in 5.0 mi SSE 4.6 mph - 0.07 in Rain Light Rain
9:07 AM 51.8 °F 51.8 °F 100% 30.08 in 2.5 mi SSE 5.8 mph - 0.04 in Rain Light Rain
9:15 AM 51.8 °F 50.0 °F 94% 30.08 in 3.0 mi SSE 4.6 mph - 0.06 in Rain Light Rain
9:53 AM 53.1 °F 51.1 °F 93% 30.08 in 7.0 mi South 3.5 mph - 0.10 in Rain Light Rain
10:36 AM 53.6 °F 51.8 °F 94% 30.07 in 9.0 mi SSE 3.5 mph - 0.01 in   Overcast
10:53 AM 54.0 °F 51.1 °F 90% 30.07 in 10.0 mi SE 5.8 mph - 0.01 in   Overcast
11:53 AM 53.1 °F 51.1 °F 93% 30.08 in 4.0 mi South 5.8 mph - 0.02 in Rain Rain
12:53 PM 54.0 °F 51.1 °F 90% 30.08 in 9.0 mi Calm Calm - 0.01 in Rain Light Rain
12:58 PM 53.6 °F 51.8 °F 94% 30.07 in 3.0 mi South 4.6 mph - 0.00 in Rain Light Rain
1:13 PM 53.6 °F 51.8 °F 94% 30.08 in 1.8 mi South 6.9 mph - 0.02 in Rain Light Rain
1:25 PM 53.6 °F 51.8 °F 94% 30.08 in 4.0 mi SSE 3.5 mph - 0.04 in Rain Light Rain
1:53 PM 53.1 °F 52.0 °F 96% 30.08 in 4.0 mi South 3.5 mph - 0.05 in Rain Light Rain
2:28 PM 53.6 °F 51.8 °F 94% 30.08 in 2.0 mi South 4.6 mph - 0.04 in Rain Light Rain
2:40 PM 53.6 °F 51.8 °F 94% 30.08 in 3.0 mi SSE 5.8 mph - 0.04 in Rain Light Rain
2:53 PM 53.1 °F 52.0 °F 96% 30.08 in 3.0 mi SSE 4.6 mph - 0.05 in Rain Light Rain
3:22 PM 53.6 °F 51.8 °F 94% 30.07 in 3.0 mi Calm Calm - 0.01 in Rain Light Rain
3:53 PM 53.1 °F 51.1 °F 93% 30.06 in 3.0 mi South 9.2 mph - 0.02 in Rain Light Rain
4:53 PM 53.1 °F 51.1 °F 93% 30.05 in 3.0 mi SSW 9.2 mph - 0.00 in Rain Light Rain
5:53 PM 52.0 °F 51.1 °F 97% 30.04 in 3.0 mi SSW 9.2 mph - 0.06 in Rain Light Rain
6:53 PM - - N/A% 30.02 in 3.0 mi North - - 0.02 in Rain Light Rain
6:55 PM 53.6 °F 53.6 °F 100% 30.03 in 6.0 mi Calm Calm - N/A Rain Light Rain
7:00 PM - - N/A% 30.02 in - North - - N/A Rain Light Rain
7:07 PM 53.6 °F 53.6 °F 100% 30.03 in 6.0 mi SSW 5.8 mph - N/A Rain Light Rain
7:19 PM 53.6 °F 53.6 °F 100% 30.01 in 6.0 mi SSW 5.8 mph - N/A Rain Light Rain
7:55 PM 51.8 °F 51.8 °F 100% 30.00 in 10.0 mi Calm Calm - N/A   Overcast
8:53 PM 52.0 °F 52.0 °F 100% 29.99 in 6.0 mi Calm Calm - N/A Rain Light Rain
9:53 PM 52.0 °F 52.0 °F 100% 29.98 in 8.0 mi NNW 3.5 mph - 0.05 in Rain Light Rain
10:00 PM 52.0 °F 52.0 °F 100% 29.97 in 8.0 mi Calm Calm - 0.00 in Rain Light Rain
10:21 PM 52.0 °F 51.1 °F 97% 29.97 in 8.0 mi NNW 4.6 mph - 0.02 in Rain Light Rain
10:53 PM 52.0 °F 51.1 °F 97% 29.97 in 8.0 mi North 4.6 mph - 0.04 in Rain Light Rain
11:00 PM 52.0 °F 51.1 °F 97% 29.96 in 8.0 mi NNW 4.6 mph - 0.01 in Rain Light Rain
11:12 PM 52.0 °F 51.1 °F 97% 29.96 in 8.0 mi West 4.6 mph - 0.02 in Rain Light Rain
11:21 PM 51.1 °F 50.0 °F 96% 29.96 in 9.0 mi WNW 3.5 mph - 0.02 in Rain Light Rain
11:53 PM 51.1 °F 48.9 °F 92% 29.95 in 8.0 mi SW 5.8 mph - 0.04 in Rain Light Rain